www.pogodaiklimat.ru

Погода и климат >> Архив погоды >> Казахстан >> Туркестан


АРХИВ ПОГОДЫ в Туркестане

Время (UTC), дата Ветер
(напр.,м/с)
 
Видим.   Явления Облачность Т
(С)
Тd
(С)
f
(%)
Тe
(С)
Тes
(С)
Комфортность P
(гПа)
Po
(гПа)
Тmin
(С)
Tmax
(С)
R
(мм)
R24
(мм)
S
(см)
00 18.08 С 3 50 км ясно +18.4 +4.5 40 +19 +19 по сезону 1012.0 988.1
03 18.08 С 3 50 км ясно +24.9 +6.2 30 +25 +28 комфорт 1012.5 989.1
06 18.08 С 3 50 км 3/3 1000 м
[Cu hum]
+29.7 +4.8 21 +28 +36 жарко 1012.5 989.4 +18.3
09 18.08 С 4 50 км 4/4 1000 м
[Cu med, cong]
+31.5 +5.1 19 +29 +35 жарко 1012.0 989.1
12 18.08 СЗ 2 50 км 4/4 1000 м
[Cu med, cong]
+31.6 +4.6 18 +29 +32 жарко 1012.0 989.1
15 18.08 С 4 50 км 4/0
[]
+27.6 +7.0 27 +27 +27 жарко 1013.7 990.5 +32.3
18 18.08 С 2 н/о ясно +23.1 +7.8 37 +24 +24 комфорт 1014.7 991.1 +32.3
21 18.08 СВ 3 н/о ясно +21.2 +8.3 43 +22 +22 комфорт 1014.4 990.6
00 19.08 СВ 3 50 км ясно +19.8 +8.3 47 +21 +21 комфорт 1015.1 991.2
03 19.08 СВ 4 50 км ясно +27.0 +7.5 29 +27 +29 жарко 1015.5 992.2
06 19.08 В 9 50 км ясно +31.2 +5.1 19 +29 +31 жарко 1015.7 992.7 +19.4
09 19.08 В 6 50 км 3/1 1000 м
[Cu hum Ci sp]
+32.6 +4.2 17 +30 +35 жарко 1014.9 992.0
12 19.08 СВ 6 50 км 5/0
[Ac lent Ci sp]
+32.8 +4.3 17 +30 +32 жарко 1014.6 991.7
15 19.08 СВ 4 50 км 5/0
[Ac lent Ci sp]
+29.0 +3.3 19 +27 +27 жарко 1015.7 992.5 +33.2
18 19.08 В 2 н/о 3/0
[Ci sp]
+25.9 +4.0 24 +25 +25 комфорт 1016.3 992.9 +33.2
21 19.08 С 1 н/о ясно +20.2 +5.2 37 +22 +22 комфорт 1015.7 991.8
00 20.08 С 3 50 км ясно +21.6 +5.4 35 +22 +22 комфорт 1015.1 991.4
03 20.08 В 2 50 км 3/0
[Ci sp]
+26.5 +8.3 32 +27 +30 жарко 1015.8 992.4
06 20.08 СВ 7 10 км 3/0
[Ci sp]
+33.0 +5.8 18 +31 +35 жарко 1015.0 992.1 +17.9
09 20.08 В 7 10 км 1/0
[Ci sp]
+34.1 +5.0 16 +32 +35 жарко 1014.0 991.2
12 20.08 СВ 3 10 км 3/1 1000 м
[Cu med, cong Ci sp]
+34.3 +5.2 16 +32 +34 жарко 1013.1 990.3
15 20.08 СВ 2 10 км ясно +30.0 +6.9 23 +29 +29 жарко 1013.0 990.0 +34.8
18 20.08 С 2 н/о ясно +25.3 +8.0 33 +25 +25 комфорт 1013.4 990.0 +34.8
21 20.08 С 2 н/о ясно +23.7 +8.2 37 +24 +24 комфорт 1012.0 988.5
00 21.08 СВ 2 10 км ясно +22.4 +8.5 41 +24 +24 комфорт 1011.3 987.7
03 21.08 СВ 2 10 км ясно +28.3 +9.9 32 +29 +32 жарко 1011.2 988.1
06 21.08 СЗ 2 10 км 3/0
[Ci sp]
+34.3 +8.1 20 +33 +46 жарко 1010.2 987.5 +21.2
09 21.08 С 3 10 км 5/0
[Ci sp]
+35.9 +5.5 15 +33 +44 жарко 1009.3 986.8
12 21.08 СВ 3 50 км 4/4 1000 м
[Cu med, cong]
+35.6 +7.2 17 +33 +35 жарко 1008.3 985.8
15 21.08 В 4 50 км ясно +29.7 +9.0 28 +29 +29 жарко 1008.9 985.9 +36.7
18 21.08 С 2 н/о ясно +26.6 +8.0 31 +27 +27 жарко 1009.2 986.0 +36.7
21 21.08 С 2 н/о ясно +22.3 +7.1 37 +23 +23 комфорт 1009.0 985.4
00 22.08 С 1 50 км ясно +19.3 +8.2 49 +21 +21 комфорт 1009.0 985.2
03 22.08 штиль 0 50 км ясно +26.3 +10.8 38 +27 +32 жарко 1008.9 985.7
06 22.08 СЗ 5 50 км ясно +33.2 +6.6 19 +31 +39 жарко 1008.2 985.5 +18.8
09 22.08 СЗ 6 10 км 3/3 1000 м
[Cu hum]
+36.7 +3.5 13 +34 +37 очень
жарко
1006.7 984.3
12 22.08 СЗ 7 10 км 1/1 1000 м
[Cu hum]
+34.9 +4.5 15 +32 +33 жарко 1006.9 984.3
15 22.08 СЗ 4 10 км ясно +28.9 +9.6 30 +29 +29 жарко 1007.8 984.8 +36.8
18 22.08 С 1 н/о ясно +24.3 +9.6 39 +25 +25 комфорт 1008.9 985.5 +36.8
21 22.08 В 2 н/о ясно +24.2 +3.2 25 +23 +23 комфорт 1008.8 985.4
00 23.08 СВ 1 50 км ясно +20.0 +5.0 37 +22 +22 комфорт 1008.9 985.2
03 23.08 СЗ 1 50 км 8/0
[Ci sp]
+21.6 +4.6 33 +22 +26 комфорт 1009.6 986.0
06 23.08 З 1 50 км 4/0
[Ci sp]
+30.3 +4.7 20 +28 +43 жарко 1009.2 986.2 +18.5
09 23.08 С 4 50 км 3/1 1000 м
[Cu hum Ac lent Ci sp]
+31.6 +6.0 20 +30 +37 жарко 1008.6 985.8
12 23.08 С 4 50 км 3/3 1000 м
[Cu med, cong]
+30.7 +6.8 22 +29 +31 жарко 1009.2 986.3
15 23.08 СВ 5 50 км ясно +27.4 +5.9 25 +26 +26 жарко 1010.9 987.7 +32.6
18 23.08 СВ 4 н/о ясно +24.8 +4.9 28 +24 +24 комфорт 1011.6 988.2 +32.6
21 23.08 В 5 н/о ясно +23.2 +6.6 34 +24 +24 комфорт 1011.6 988.1
00 24.08 С 4 50 км ясно +22.9 +6.4 34 +23 +23 комфорт 1012.0 988.4
03 24.08 ЮЗ 1 50 км ясно +23.5 +7.3 35 +24 +28 комфорт 1013.9 990.3
06 24.08 СВ 7 50 км ясно +30.6 +6.5 22 +29 +33 жарко 1013.6 990.6 +16.8
09 24.08 СВ 5 50 км ясно +32.7 +4.5 17 +30 +37 жарко 1012.3 989.5
12 24.08 В 4 50 км ясно +32.3 +3.6 16 +30 +32 жарко 1011.7 988.8
15 24.08 В 5 50 км ясно +28.1 +1.0 17 +26 +26 жарко 1012.7 989.5 +33.1
18 24.08 В 6 н/о ясно +26.6 -0.9 16 +24 +24 комфорт 1012.8 989.4 +33.1
21 24.08 СВ 5 н/о ясно +23.5 +3.5 27 +23 +23 комфорт 1012.2 988.6

 

Местоположение метеостанции Туркестан (Южно-Казахстанская область, Казахстан): широта 43.27 долгота 68.22 высота над уровнем моря 207 м.

В архиве по умолчанию представлена погода в Туркестане за последнюю неделю. Архивные данные за месяц целиком и за предыдущие месяцы, начиная с января 2011 года, Вы можете получить, выбрав интересующий диапазон дат из раскрывающегося списка и нажав кнопку "Ввод!".


*Определитесь, кто Вы:
робот инопланетянин человек

Внимание! Время в таблицах - всемирное. Для получения местного времени необходимо прибавить поправку, которая равна 6 ч.

Смотрите также архив погоды в соседних городах и на ближайших метеорологических станциях:

Погода в Шаульдере (Южно-Казахстанская область, Казахстан) (56 км)
Погода в Ачисае (Южно-Казахстанская область, Казахстан) (63 км)
Погода в Таукент (Южно-Казахстанская область, Казахстан) (79 км)
Погода в Аккуме (Южно-Казахстанская область, Казахстан) (82 км)
Погода в Кызылкуме (Южно-Казахстанская область, Казахстан) (83 км)
Погода в Бугуни (Южно-Казахстанская область, Казахстан) (85 км)
Погода в Шолаккоргане (Южно-Казахстанская область, Казахстан) (95 км)
Погода в Шаяне (Южно-Казахстанская область, Казахстан) (97 км)
Погода в Арысе (Южно-Казахстанская область, Казахстан) (105 км)
Погода в Жанатасе (Жамбылская область, Казахстан) (128 км)

Пояснения к столбцам:

Ветер - указаны скорость ветра в м/с - средняя за 10 мин, порывы в срок и между сроками (в фигурных скобках) и направление, откуда дует ветер: С - северный, СВ - северо-восточный, В - восточный, ЮВ - юго-восточный, Ю - южный, ЮЗ - юго-западный, З - западный, СЗ - северо-западный.
Видимость - горизонтальная дальность видимости в метрах или километрах. При видимости от 1 до 10 км при отсутствии осадков обычно наблюдается дымка, при ухудшении видимости до 1 км и менее - туман. В сухую погоду видимость может ухудшаться дымом, пылью или мглою.
Явления - указаны атмосферные явления, наблюдавшиеся в срок или в последний час перед сроком; фигурными скобками обозначены явления, наблюдавшиеся между сроками (за 1-3 часа до срока); квадратными скобками обозначены град или гололедные отложения с указанием их диаметра в мм.
Облачность - указаны через наклонную черту общая и нижняя облачность в баллах и высота нижней границы облаков в метрах; квадратными скобками обозначены формы облаков: Ci - перистые, Cs - перисто-слоистые, Cc - перисто-кучевые, Ac - высококучевые, As - высокослоистые, Sc - слоисто-кучевые, Ns - слоисто-дождевые, Cu - кучевые, Cb - кучево-дождевые. Подробнее классификацию облаков см. в Атласе облаков (PDF).
T - Температура воздуха - температура, измеренная на высоте 2 м над землей.
Td - Температура точки росы - температура, при понижении до которой содержащийся в воздухе водяной пар достигнет насыщения.
f - Относительная влажность воздуха - влажноcть воздуха, измеренная на высоте 2 м над землей.
Te - Эффективная температура - температура, которую ощущает одетый по сезону человек в тени. Характеристика душности погоды. При расчете учитывается влияние влажности воздуха и скорости ветра на теплоощущения человека.
Tes - Эффективная температура на солнце - температура, которую ощущает человек, с поправкой на солнечный нагрев. Характеристика знойности погоды. Зависит от высоты солнца над горизонтом, облачности и скорости ветра. Ночью, в пасмурную погоду, а также при ветре 12 м/с и более поправка равна нулю.
P - Атмосферное давление - приведенное к уровню моря атмосферное давление.
Po - Атмосферное давление - измеренное на уровне метеостанции атмосферное давление.
Tmin - Минимальная температура - минимум температуры воздуха на высоте 2 м над землей.
Tmax - Максимальная температура - максимум температуры воздуха на высоте 2 м над землей.
R - Количество осадков - Количество выпавших осадков за период времени, мм. При наведении курсора мыши на число - период времени, за который выпало указанное количество осадков.
R24 - Количество осадков - Количество выпавших осадков за 24 часа, мм.
S - Снежный покров - Высота снежного покрова, см. При наведении курсора мыши на число - состояние снежного покрова и степень покрытия местности в баллах.